Location: Northam
(31.6525°S, 116.6655°E)
Time: 23:50:54
(UTC+08:00)

Envisat - Pass Details

Date: 19 May 2021
Orbit: 764 x 766 km, 98.1° (Epoch: 14 June)

Event Time Altitude Azimuth Distance (km) Brightness Sun altitude
Rises 03:57:15 0° 48° (NE) 3,222 6.8 -38.0°
Reaches altitude 10° 04:00:01 10° 63° (ENE) 2,305 6.1 -37.4°
Maximum altitude 04:03:48 22° 111° (ESE) 1,660 5.2 -36.6°
Enters shadow 04:05:42 18° 140° (SE) 1,851 5.3 -36.2°
